Location: Buchdorf
(48.7842°N, 10.8275°E)
Time: 08:44:39
(UTC+00:00)

Cosmos 1461 - Pass Details

Date: 09 April 2020
Orbit: 506 x 660 km, 65.0° (Epoch: 06 June)

Event Time Altitude Azimuth Distance (km) Brightness Sun altitude
Rises 18:56:09 0° 319° (NW) 2,884 7.8 -9.6°
Reaches altitude 10° 18:58:23 10° 317° (NW) 1,998 6.9 -9.9°
Maximum altitude 19:02:53 66° 236° (SW) 702 3.5 -10.6°
Drops below altitude 10° 19:07:31 10° 155° (SSE) 2,053 5.3 -11.3°
Enters shadow 19:07:43 - 154° (SSE) 2,131 5.3 -11.3°
